Time,TemperatureF,DewpointF,PressureIn,WindDirection,WindDirectionDegrees,WindSpeedMPH,WindSpeedGustMPH,Humidity,HourlyPrecipIn,Conditions,Clouds,dailyrainin,SoftwareType,DateUTC
2013-09-14 00:00:00,61.8,58.5,29.67,NNW,327,0.0,6.0,89,0.00,,,0.00,VWS V14.01,2013-09-14 04:00:00,
2013-09-14 00:01:00,61.8,58.5,29.67,NNW,327,0.0,6.0,89,0.00,,,0.00,VWS V14.01,2013-09-14 04:01:00,
2013-09-14 00:02:00,61.8,58.5,29.67,NW,315,2.0,6.0,89,0.00,,,0.00,VWS V14.01,2013-09-14 04:02:00,
2013-09-14 00:07:00,61.8,58.5,29.67,NW,323,2.0,5.0,89,0.00,,,0.00,VWS V14.01,2013-09-14 04:07:00,
2013-09-14 00:12:00,61.8,58.5,29.67,West,281,3.0,6.0,89,0.00,,,0.00,VWS V14.01,2013-09-14 04:12:00,
2013-09-14 00:17:00,61.8,58.5,29.67,NNW,333,0.0,6.0,89,0.00,,,0.00,VWS V14.01,2013-09-14 04:17:00,
2013-09-14 00:22:00,61.8,58.5,29.67,NW,315,3.0,6.0,89,0.00,,,0.00,VWS V14.01,2013-09-14 04:22:00,
2013-09-14 00:27:00,61.7,58.4,29.67,NW,319,4.0,6.0,89,0.00,,,0.00,VWS V14.01,2013-09-14 04:27:00,
2013-09-14 00:30:00,61.6,58.3,29.67,NNW,348,0.0,6.0,89,0.00,,,0.00,VWS V14.01,2013-09-14 04:30:00,
2013-09-14 00:32:00,61.6,58.3,29.67,NNW,348,0.0,6.0,89,0.00,,,0.00,VWS V14.01,2013-09-14 04:32:00,
2013-09-14 00:37:00,61.6,58.0,29.67,NW,315,0.0,6.0,88,0.00,,,0.00,VWS V14.01,2013-09-14 04:37:00,
2013-09-14 00:42:00,61.6,58.0,29.67,WNW,302,4.0,6.0,88,0.00,,,0.00,VWS V14.01,2013-09-14 04:42:00,
2013-09-14 00:47:00,61.6,58.0,29.68,NNE,12,2.0,6.0,88,0.00,,,0.00,VWS V14.01,2013-09-14 04:47:00,
2013-09-14 00:52:00,61.6,58.0,29.68,NNW,333,1.0,6.0,88,0.00,,,0.00,VWS V14.01,2013-09-14 04:52:00,
2013-09-14 00:57:00,61.6,57.7,29.68,WNW,298,2.0,6.0,87,0.00,,,0.00,VWS V14.01,2013-09-14 04:57:00,
2013-09-14 01:00:00,61.6,57.7,29.68,NNW,347,0.0,6.0,87,0.00,,,0.00,VWS V14.01,2013-09-14 05:00:00,
2013-09-14 01:02:00,61.6,57.7,29.68,NNW,347,1.0,6.0,87,0.00,,,0.00,VWS V14.01,2013-09-14 05:02:00,
2013-09-14 01:07:00,61.6,57.7,29.68,NW,325,1.0,4.0,87,0.00,,,0.00,VWS V14.01,2013-09-14 05:07:00,
2013-09-14 01:12:00,61.6,57.7,29.69,WSW,250,3.0,6.0,87,0.00,,,0.00,VWS V14.01,2013-09-14 05:12:00,
2013-09-14 01:17:00,61.6,57.7,29.69,NNW,328,1.0,8.0,87,0.00,,,0.00,VWS V14.01,2013-09-14 05:17:00,
2013-09-14 01:22:00,61.6,57.7,29.69,NW,324,2.0,8.0,87,0.00,,,0.00,VWS V14.01,2013-09-14 05:22:00,
2013-09-14 01:27:00,61.5,57.3,29.69,NW,304,4.0,8.0,86,0.00,,,0.00,VWS V14.01,2013-09-14 05:27:00,
2013-09-14 01:30:00,61.5,57.3,29.69,NNW,340,1.0,8.0,86,0.00,,,0.00,VWS V14.01,2013-09-14 05:30:00,
2013-09-14 01:32:00,61.5,57.3,29.69,NNW,340,2.0,8.0,86,0.00,,,0.00,VWS V14.01,2013-09-14 05:32:00,
2013-09-14 01:37:00,61.5,57.3,29.69,NNW,328,4.0,5.0,86,0.00,,,0.00,VWS V14.01,2013-09-14 05:37:00,
2013-09-14 01:42:00,61.4,57.2,29.69,NW,313,1.0,5.0,86,0.00,,,0.00,VWS V14.01,2013-09-14 05:42:00,
2013-09-14 01:47:00,61.4,57.2,29.70,NW,312,0.0,5.0,86,0.00,,,0.00,VWS V14.01,2013-09-14 05:47:00,
2013-09-14 01:52:00,61.4,57.2,29.70,WNW,283,2.0,5.0,86,0.00,,,0.00,VWS V14.01,2013-09-14 05:52:00,
2013-09-14 01:57:00,61.4,57.2,29.70,NW,304,5.0,5.0,86,0.00,,,0.00,VWS V14.01,2013-09-14 05:57:00,
2013-09-14 02:00:00,61.3,57.1,29.70,WNW,293,0.0,8.0,86,0.00,,,0.00,VWS V14.01,2013-09-14 06:00:00,
2013-09-14 02:02:00,61.3,57.1,29.70,West,263,1.0,8.0,86,0.00,,,0.00,VWS V14.01,2013-09-14 06:02:00,
2013-09-14 02:07:00,61.2,57.0,29.70,WNW,290,3.0,7.0,86,0.00,,,0.00,VWS V14.01,2013-09-14 06:07:00,
2013-09-14 02:12:00,61.2,57.0,29.70,NNW,348,2.0,10.0,86,0.00,,,0.00,VWS V14.01,2013-09-14 06:12:00,
2013-09-14 02:17:00,61.2,57.0,29.70,WNW,284,1.0,10.0,86,0.00,,,0.00,VWS V14.01,2013-09-14 06:17:00,
2013-09-14 02:22:00,61.1,56.9,29.70,NW,313,0.0,10.0,86,0.00,,,0.00,VWS V14.01,2013-09-14 06:22:00,
2013-09-14 02:27:00,61.1,56.9,29.70,North,355,1.0,10.0,86,0.00,,,0.00,VWS V14.01,2013-09-14 06:27:00,
2013-09-14 02:30:00,61.0,56.8,29.71,North,5,0.0,10.0,86,0.00,,,0.00,VWS V14.01,2013-09-14 06:30:00,
2013-09-14 02:32:00,61.0,56.8,29.71,North,5,2.0,10.0,86,0.00,,,0.00,VWS V14.01,2013-09-14 06:32:00,
2013-09-14 02:37:00,61.0,56.8,29.71,NNW,329,1.0,7.0,86,0.00,,,0.00,VWS V14.01,2013-09-14 06:37:00,
2013-09-14 02:41:00,61.0,56.8,29.71,NW,306,0.0,7.0,86,0.00,,,0.00,VWS V14.01,2013-09-14 06:41:00,
2013-09-14 02:46:00,61.0,56.8,29.71,North,350,1.0,7.0,86,0.00,,,0.00,VWS V14.01,2013-09-14 06:46:00,
2013-09-14 02:51:00,60.9,56.7,29.71,ENE,75,0.0,7.0,86,0.00,,,0.00,VWS V14.01,2013-09-14 06:51:00,
2013-09-14 02:56:00,60.9,56.7,29.71,NW,319,2.0,7.0,86,0.00,,,0.00,VWS V14.01,2013-09-14 06:56:00,
2013-09-14 03:00:00,60.8,56.3,29.71,NW,319,2.0,7.0,85,0.00,,,0.00,VWS V14.01,2013-09-14 07:00:00,
2013-09-14 03:01:00,60.8,56.3,29.71,NW,319,1.0,7.0,85,0.00,,,0.00,VWS V14.01,2013-09-14 07:01:00,
2013-09-14 03:06:00,60.8,56.6,29.71,NW,321,1.0,3.0,86,0.00,,,0.00,VWS V14.01,2013-09-14 07:06:00,
2013-09-14 03:11:00,60.8,56.6,29.71,NW,322,0.0,4.0,86,0.00,,,0.00,VWS V14.01,2013-09-14 07:11:00,
2013-09-14 03:16:00,60.8,56.6,29.70,NW,309,0.0,5.0,86,0.00,,,0.00,VWS V14.01,2013-09-14 07:16:00,
2013-09-14 03:21:00,60.6,56.1,29.70,WNW,303,2.0,5.0,85,0.00,,,0.00,VWS V14.01,2013-09-14 07:21:00,
2013-09-14 03:26:00,60.4,56.2,29.70,NNW,348,1.0,5.0,86,0.00,,,0.00,VWS V14.01,2013-09-14 07:26:00,
2013-09-14 03:30:00,60.3,56.1,29.70,NNW,338,0.0,5.0,86,0.00,,,0.00,VWS V14.01,2013-09-14 07:30:00,
2013-09-14 03:31:00,60.3,56.1,29.70,NNW,338,0.0,5.0,86,0.00,,,0.00,VWS V14.01,2013-09-14 07:31:00,
2013-09-14 03:36:00,60.2,56.0,29.70,WNW,295,1.0,4.0,86,0.00,,,0.00,VWS V14.01,2013-09-14 07:36:00,
2013-09-14 03:41:00,60.1,55.9,29.70,NE,40,2.0,5.0,86,0.00,,,0.00,VWS V14.01,2013-09-14 07:41:00,
2013-09-14 03:46:00,60.0,55.8,29.71,North,349,0.0,5.0,86,0.00,,,0.00,VWS V14.01,2013-09-14 07:46:00,
2013-09-14 03:51:00,59.9,55.7,29.71,North,349,2.0,5.0,86,0.00,,,0.00,VWS V14.01,2013-09-14 07:51:00,
2013-09-14 03:56:00,59.8,55.9,29.71,North,349,0.0,5.0,87,0.00,,,0.00,VWS V14.01,2013-09-14 07:56:00,
2013-09-14 04:00:00,59.7,55.8,29.71,NW,321,1.0,5.0,87,0.00,,,0.00,VWS V14.01,2013-09-14 08:00:00,
2013-09-14 04:01:00,59.8,55.9,29.71,NW,321,1.0,5.0,87,0.00,,,0.00,VWS V14.01,2013-09-14 08:01:00,
2013-09-14 04:06:00,59.8,55.9,29.71,NW,313,0.0,3.0,87,0.00,,,0.00,VWS V14.01,2013-09-14 08:06:00,
2013-09-14 04:11:00,59.8,55.9,29.72,NW,313,3.0,3.0,87,0.00,,,0.00,VWS V14.01,2013-09-14 08:11:00,
2013-09-14 04:16:00,59.8,55.9,29.71,NNW,340,2.0,4.0,87,0.00,,,0.00,VWS V14.01,2013-09-14 08:16:00,
2013-09-14 04:21:00,59.8,55.9,29.71,NW,321,5.0,5.0,87,0.00,,,0.00,VWS V14.01,2013-09-14 08:21:00,
2013-09-14 04:26:00,59.8,55.9,29.72,WNW,284,0.0,5.0,87,0.00,,,0.00,VWS V14.01,2013-09-14 08:26:00,
2013-09-14 04:30:00,59.8,55.9,29.72,NNE,28,1.0,6.0,87,0.00,,,0.00,VWS V14.01,2013-09-14 08:30:00,
2013-09-14 04:31:00,59.8,55.9,29.72,NE,36,4.0,6.0,87,0.00,,,0.00,VWS V14.01,2013-09-14 08:31:00,
2013-09-14 04:36:00,59.8,55.9,29.72,NNW,336,2.0,4.0,87,0.00,,,0.00,VWS V14.01,2013-09-14 08:36:00,
2013-09-14 04:41:00,59.8,55.9,29.72,North,9,1.0,5.0,87,0.00,,,0.00,VWS V14.01,2013-09-14 08:41:00,
2013-09-14 04:46:00,59.8,55.6,29.72,NNW,335,1.0,5.0,86,0.00,,,0.00,VWS V14.01,2013-09-14 08:46:00,
2013-09-14 04:51:00,59.7,55.5,29.72,NNW,335,0.0,5.0,86,0.00,,,0.00,VWS V14.01,2013-09-14 08:51:00,
2013-09-14 04:56:00,59.7,55.5,29.72,NNE,22,1.0,5.0,86,0.00,,,0.00,VWS V14.01,2013-09-14 08:56:00,
2013-09-14 05:00:00,59.7,55.5,29.72,NW,317,0.0,5.0,86,0.00,,,0.00,VWS V14.01,2013-09-14 09:00:00,
2013-09-14 05:01:00,59.7,55.5,29.72,NW,317,1.0,5.0,86,0.00,,,0.00,VWS V14.01,2013-09-14 09:01:00,
2013-09-14 05:06:00,59.7,55.5,29.72,NW,317,0.0,3.0,86,0.00,,,0.00,VWS V14.01,2013-09-14 09:06:00,
2013-09-14 05:11:00,59.6,55.4,29.72,NW,317,0.0,3.0,86,0.00,,,0.00,VWS V14.01,2013-09-14 09:11:00,
2013-09-14 05:16:00,59.5,55.3,29.72,NW,317,0.0,3.0,86,0.00,,,0.00,VWS V14.01,2013-09-14 09:16:00,
2013-09-14 05:21:00,59.4,55.2,29.73,NW,317,0.0,3.0,86,0.00,,,0.00,VWS V14.01,2013-09-14 09:21:00,
2013-09-14 05:26:00,59.4,55.2,29.73,NW,317,0.0,3.0,86,0.00,,,0.00,VWS V14.01,2013-09-14 09:26:00,
2013-09-14 05:30:00,59.3,55.4,29.74,NW,317,0.0,3.0,87,0.00,,,0.00,VWS V14.01,2013-09-14 09:30:00,
2013-09-14 05:31:00,59.3,55.4,29.74,NW,317,0.0,3.0,87,0.00,,,0.00,VWS V14.01,2013-09-14 09:31:00,
2013-09-14 05:36:00,59.3,55.4,29.74,NW,317,0.0,2.0,87,0.00,,,0.00,VWS V14.01,2013-09-14 09:36:00,
2013-09-14 05:41:00,59.2,55.3,29.74,NW,317,0.0,2.0,87,0.00,,,0.00,VWS V14.01,2013-09-14 09:41:00,
2013-09-14 05:46:00,59.1,55.2,29.74,NW,317,0.0,2.0,87,0.00,,,0.00,VWS V14.01,2013-09-14 09:46:00,
2013-09-14 05:51:00,58.9,55.4,29.75,NW,317,0.0,2.0,88,0.00,,,0.00,VWS V14.01,2013-09-14 09:51:00,
2013-09-14 05:56:00,58.8,55.3,29.74,NW,317,0.0,2.0,88,0.00,,,0.00,VWS V14.01,2013-09-14 09:56:00,
2013-09-14 06:00:00,58.7,55.5,29.75,NW,323,0.0,4.0,89,0.00,,,0.00,VWS V14.01,2013-09-14 10:00:00,
2013-09-14 06:01:00,58.7,55.5,29.75,NW,323,1.0,4.0,89,0.00,,,0.00,VWS V14.01,2013-09-14 10:01:00,
2013-09-14 06:06:00,58.6,55.4,29.75,NW,308,1.0,3.0,89,0.00,,,0.00,VWS V14.01,2013-09-14 10:06:00,
2013-09-14 06:11:00,58.5,55.3,29.75,NW,308,1.0,3.0,89,0.00,,,0.00,VWS V14.01,2013-09-14 10:11:00,
2013-09-14 06:16:00,58.5,55.3,29.75,NW,308,1.0,3.0,89,0.00,,,0.00,VWS V14.01,2013-09-14 10:16:00,
2013-09-14 06:21:00,58.4,54.9,29.75,NNW,334,2.0,5.0,88,0.00,,,0.00,VWS V14.01,2013-09-14 10:21:00,
2013-09-14 06:26:00,58.3,54.8,29.75,NW,305,1.0,5.0,88,0.00,,,0.00,VWS V14.01,2013-09-14 10:26:00,
2013-09-14 06:30:00,58.3,55.1,29.76,NW,305,1.0,5.0,89,0.00,,,0.00,VWS V14.01,2013-09-14 10:30:00,
2013-09-14 06:31:00,58.3,55.1,29.76,NW,305,2.0,5.0,89,0.00,,,0.00,VWS V14.01,2013-09-14 10:31:00,
2013-09-14 06:36:00,58.2,55.0,29.76,NNW,330,0.0,3.0,89,0.00,,,0.00,VWS V14.01,2013-09-14 10:36:00,
2013-09-14 06:41:00,58.2,55.0,29.76,NNW,336,0.0,4.0,89,0.00,,,0.00,VWS V14.01,2013-09-14 10:41:00,
2013-09-14 06:46:00,58.2,55.0,29.76,NNW,336,0.0,4.0,89,0.00,,,0.00,VWS V14.01,2013-09-14 10:46:00,
2013-09-14 06:51:00,58.2,55.0,29.76,NW,325,2.0,5.0,89,0.00,,,0.00,VWS V14.01,2013-09-14 10:51:00,
2013-09-14 06:56:00,58.2,54.7,29.76,NNW,331,0.0,7.0,88,0.00,,,0.00,VWS V14.01,2013-09-14 10:56:00,
2013-09-14 07:00:00,58.3,55.1,29.77,NNW,340,0.0,7.0,89,0.00,,,0.00,VWS V14.01,2013-09-14 11:00:00,
2013-09-14 07:01:00,58.3,55.1,29.77,NNW,340,0.0,7.0,89,0.00,,,0.00,VWS V14.01,2013-09-14 11:01:00,
2013-09-14 07:06:00,58.3,54.8,29.77,NNW,328,1.0,4.0,88,0.00,,,0.00,VWS V14.01,2013-09-14 11:06:00,
2013-09-14 07:11:00,58.3,54.8,29.77,WNW,293,0.0,4.0,88,0.00,,,0.00,VWS V14.01,2013-09-14 11:11:00,
2013-09-14 07:16:00,58.5,55.0,29.77,NW,318,1.0,4.0,88,0.00,,,0.00,VWS V14.01,2013-09-14 11:16:00,
2013-09-14 07:21:00,58.6,55.1,29.77,NW,317,2.0,5.0,88,0.00,,,0.00,VWS V14.01,2013-09-14 11:21:00,
2013-09-14 07:26:00,58.7,54.8,29.77,NW,320,2.0,5.0,87,0.00,,,0.00,VWS V14.01,2013-09-14 11:26:00,
2013-09-14 07:30:00,59.1,55.2,29.77,NW,320,1.0,5.0,87,0.00,,,0.00,VWS V14.01,2013-09-14 11:30:00,
2013-09-14 07:31:00,59.0,55.1,29.77,NW,320,0.0,5.0,87,0.00,,,0.00,VWS V14.01,2013-09-14 11:31:00,
2013-09-14 07:36:00,59.3,55.1,29.77,NNW,333,3.0,5.0,86,0.00,,,0.00,VWS V14.01,2013-09-14 11:36:00,
2013-09-14 07:41:00,59.5,55.3,29.77,WSW,246,3.0,7.0,86,0.00,,,0.00,VWS V14.01,2013-09-14 11:41:00,
2013-09-14 07:46:00,59.8,55.3,29.77,NW,304,1.0,7.0,85,0.00,,,0.00,VWS V14.01,2013-09-14 11:46:00,
2013-09-14 07:51:00,60.0,55.5,29.78,NNW,330,6.0,7.0,85,0.00,,,0.00,VWS V14.01,2013-09-14 11:51:00,
2013-09-14 07:56:00,60.2,55.3,29.78,NW,306,0.0,7.0,84,0.00,,,0.00,VWS V14.01,2013-09-14 11:56:00,
2013-09-14 08:00:00,60.5,55.7,29.78,WNW,286,2.0,7.0,84,0.00,,,0.00,VWS V14.01,2013-09-14 12:00:00,
2013-09-14 08:01:00,60.5,55.7,29.78,NNW,343,0.0,7.0,84,0.00,,,0.00,VWS V14.01,2013-09-14 12:01:00,
2013-09-14 08:06:00,60.7,55.8,29.78,NW,317,0.0,5.0,84,0.00,,,0.00,VWS V14.01,2013-09-14 12:06:00,
2013-09-14 08:11:00,61.3,56.1,29.78,NNE,23,0.0,5.0,83,0.00,,,0.00,VWS V14.01,2013-09-14 12:11:00,
2013-09-14 08:16:00,61.5,55.6,29.78,West,262,3.0,7.0,81,0.00,,,0.00,VWS V14.01,2013-09-14 12:16:00,
2013-09-14 08:21:00,61.7,55.8,29.78,WNW,295,2.0,7.0,81,0.00,,,0.00,VWS V14.01,2013-09-14 12:21:00,
2013-09-14 08:26:00,61.8,55.6,29.78,NW,315,1.0,7.0,80,0.00,,,0.00,VWS V14.01,2013-09-14 12:26:00,
2013-09-14 08:30:00,61.8,55.6,29.78,NW,312,1.0,7.0,80,0.00,,,0.00,VWS V14.01,2013-09-14 12:30:00,
2013-09-14 08:31:00,61.8,55.6,29.78,NW,312,1.0,7.0,80,0.00,,,0.00,VWS V14.01,2013-09-14 12:31:00,
2013-09-14 08:36:00,62.4,56.5,29.78,WNW,301,1.0,5.0,81,0.00,,,0.00,VWS V14.01,2013-09-14 12:36:00,
2013-09-14 08:41:00,62.7,56.1,29.79,NNW,338,0.0,5.0,79,0.00,,,0.00,VWS V14.01,2013-09-14 12:41:00,
2013-09-14 08:46:00,62.5,56.2,29.79,WNW,301,4.0,6.0,80,0.00,,,0.00,VWS V14.01,2013-09-14 12:46:00,
2013-09-14 08:51:00,62.7,56.8,29.79,NNW,331,0.0,6.0,81,0.00,,,0.00,VWS V14.01,2013-09-14 12:51:00,
2013-09-14 08:56:00,63.1,56.8,29.79,NNW,333,2.0,6.0,80,0.00,,,0.00,VWS V14.01,2013-09-14 12:56:00,
2013-09-14 09:00:00,63.4,56.8,29.79,NW,317,0.0,6.0,79,0.00,,,0.00,VWS V14.01,2013-09-14 13:00:00,
2013-09-14 09:01:00,63.4,57.1,29.79,NW,323,0.0,6.0,80,0.00,,,0.00,VWS V14.01,2013-09-14 13:01:00,
2013-09-14 09:06:00,63.9,57.3,29.80,NW,317,0.0,3.0,79,0.00,,,0.00,VWS V14.01,2013-09-14 13:06:00,
2013-09-14 09:11:00,64.4,57.0,29.80,NW,317,1.0,4.0,77,0.00,,,0.00,VWS V14.01,2013-09-14 13:11:00,
2013-09-14 09:16:00,65.0,57.6,29.80,NNW,340,1.0,4.0,77,0.00,,,0.00,VWS V14.01,2013-09-14 13:16:00,
2013-09-14 09:21:00,65.5,57.7,29.80,NNW,333,0.0,4.0,76,0.00,,,0.00,VWS V14.01,2013-09-14 13:21:00,
2013-09-14 09:26:00,65.9,57.4,29.80,WNW,285,2.0,4.0,74,0.00,,,0.00,VWS V14.01,2013-09-14 13:26:00,
2013-09-14 09:30:00,65.4,57.3,29.80,NNW,348,2.0,8.0,75,0.00,,,0.00,VWS V14.01,2013-09-14 13:30:00,
2013-09-14 09:31:00,65.4,57.3,29.80,NNW,344,0.0,8.0,75,0.00,,,0.00,VWS V14.01,2013-09-14 13:31:00,
2013-09-14 09:36:00,65.0,56.9,29.80,NNW,333,2.0,4.0,75,0.00,,,0.00,VWS V14.01,2013-09-14 13:36:00,
2013-09-14 09:41:00,65.1,57.4,29.81,NNW,330,3.0,4.0,76,0.00,,,0.00,VWS V14.01,2013-09-14 13:41:00,
2013-09-14 09:46:00,65.0,57.3,29.81,WNW,292,1.0,4.0,76,0.00,,,0.00,VWS V14.01,2013-09-14 13:46:00,
2013-09-14 09:51:00,65.0,57.3,29.81,NNW,331,1.0,4.0,76,0.00,,,0.00,VWS V14.01,2013-09-14 13:51:00,
2013-09-14 09:56:00,65.6,57.8,29.81,North,11,1.0,4.0,76,0.00,,,0.00,VWS V14.01,2013-09-14 13:56:00,
2013-09-14 10:00:00,66.2,57.3,29.82,NNW,342,0.0,4.0,73,0.00,,,0.00,VWS V14.01,2013-09-14 14:00:00,
2013-09-14 10:01:00,66.2,57.3,29.82,NW,314,3.0,4.0,73,0.00,,,0.00,VWS V14.01,2013-09-14 14:01:00,
2013-09-14 10:06:00,66.5,58.0,29.82,NW,306,3.0,4.0,74,0.00,,,0.00,VWS V14.01,2013-09-14 14:06:00,
2013-09-14 10:11:00,66.6,57.3,29.82,NW,311,3.0,6.0,72,0.00,,,0.00,VWS V14.01,2013-09-14 14:11:00,
2013-09-14 10:16:00,66.2,57.3,29.81,NW,312,2.0,6.0,73,0.00,,,0.00,VWS V14.01,2013-09-14 14:16:00,
2013-09-14 10:21:00,66.4,57.5,29.81,NE,37,1.0,6.0,73,0.00,,,0.00,VWS V14.01,2013-09-14 14:21:00,
2013-09-14 10:26:00,66.8,57.5,29.82,WNW,282,3.0,6.0,72,0.00,,,0.00,VWS V14.01,2013-09-14 14:26:00,
2013-09-14 10:30:00,67.3,58.0,29.82,NNW,336,0.0,6.0,72,0.00,,,0.00,VWS V14.01,2013-09-14 14:30:00,
2013-09-14 10:31:00,67.2,57.9,29.82,NNW,338,2.0,6.0,72,0.00,,,0.00,VWS V14.01,2013-09-14 14:31:00,
2013-09-14 10:36:00,67.6,57.9,29.82,NW,325,4.0,5.0,71,0.00,,,0.00,VWS V14.01,2013-09-14 14:36:00,
2013-09-14 10:41:00,67.8,58.1,29.82,NNW,340,0.0,5.0,71,0.00,,,0.00,VWS V14.01,2013-09-14 14:41:00,
2013-09-14 10:46:00,67.7,57.6,29.82,NW,326,3.0,6.0,70,0.00,,,0.00,VWS V14.01,2013-09-14 14:46:00,
2013-09-14 10:51:00,67.4,57.7,29.82,West,280,0.0,6.0,71,0.00,,,0.00,VWS V14.01,2013-09-14 14:51:00,
2013-09-14 10:56:00,67.1,57.8,29.82,NNW,342,3.0,6.0,72,0.00,,,0.00,VWS V14.01,2013-09-14 14:56:00,
2013-09-14 11:00:00,67.2,57.9,29.82,NW,313,0.0,6.0,72,0.00,,,0.00,VWS V14.01,2013-09-14 15:00:00,
2013-09-14 11:01:00,67.2,57.5,29.82,NNW,338,2.0,6.0,71,0.00,,,0.00,VWS V14.01,2013-09-14 15:01:00,
2013-09-14 11:06:00,67.8,59.2,29.82,NW,313,1.0,2.0,74,0.00,,,0.00,VWS V14.01,2013-09-14 15:06:00,
2013-09-14 11:11:00,68.6,58.8,29.82,NNW,338,0.0,3.0,71,0.00,,,0.00,VWS V14.01,2013-09-14 15:11:00,
2013-09-14 11:16:00,69.0,58.4,29.82,WNW,286,0.0,4.0,69,0.00,,,0.00,VWS V14.01,2013-09-14 15:16:00,
2013-09-14 11:21:00,68.9,58.3,29.82,NW,311,1.0,4.0,69,0.00,,,0.00,VWS V14.01,2013-09-14 15:21:00,
2013-09-14 11:26:00,69.0,58.8,29.82,NE,36,0.0,5.0,70,0.00,,,0.00,VWS V14.01,2013-09-14 15:26:00,
2013-09-14 11:30:00,68.6,58.0,29.82,South,190,0.0,5.0,69,0.00,,,0.00,VWS V14.01,2013-09-14 15:30:00,
2013-09-14 11:31:00,68.8,58.6,29.82,South,190,1.0,5.0,70,0.00,,,0.00,VWS V14.01,2013-09-14 15:31:00,
2013-09-14 11:36:00,68.5,58.7,29.82,SW,215,0.0,3.0,71,0.00,,,0.00,VWS V14.01,2013-09-14 15:36:00,
2013-09-14 11:41:00,69.3,59.9,29.82,NW,311,1.0,4.0,72,0.00,,,0.00,VWS V14.01,2013-09-14 15:41:00,
2013-09-14 11:46:00,69.6,57.8,29.83,North,355,2.0,4.0,66,0.00,,,0.00,VWS V14.01,2013-09-14 15:46:00,
2013-09-14 11:51:00,69.4,58.8,29.82,North,360,0.0,4.0,69,0.00,,,0.00,VWS V14.01,2013-09-14 15:51:00,
2013-09-14 11:56:00,70.0,59.0,29.82,NNE,24,2.0,4.0,68,0.00,,,0.00,VWS V14.01,2013-09-14 15:56:00,
2013-09-14 12:00:00,67.2,57.9,29.82,NW,313,0.0,6.0,72,0.00,,,0.00,VWS V14.01,2013-09-14 16:00:00,
2013-09-14 12:01:00,69.9,58.9,29.82,NNW,338,1.0,5.0,68,0.00,,,0.00,VWS V14.01,2013-09-14 16:01:00,
2013-09-14 12:06:00,69.8,58.8,29.83,NNW,338,1.0,5.0,68,0.00,,,0.00,VWS V14.01,2013-09-14 16:06:00,
2013-09-14 12:11:00,70.0,59.4,29.83,NNW,338,0.0,5.0,69,0.00,,,0.00,VWS V14.01,2013-09-14 16:11:00,
2013-09-14 12:16:00,71.0,59.9,29.83,NNW,337,1.0,5.0,68,0.00,,,0.00,VWS V14.01,2013-09-14 16:16:00,
2013-09-14 12:21:00,70.9,58.6,29.82,WNW,288,1.0,5.0,65,0.00,,,0.00,VWS V14.01,2013-09-14 16:21:00,
2013-09-14 12:26:00,70.6,58.3,29.83,NNW,337,2.0,5.0,65,0.00,,,0.00,VWS V14.01,2013-09-14 16:26:00,
2013-09-14 12:30:00,71.0,58.7,29.83,NNW,327,3.0,6.0,65,0.00,,,0.00,VWS V14.01,2013-09-14 16:30:00,
2013-09-14 12:31:00,70.9,59.0,29.83,West,277,4.0,5.0,66,0.00,,,0.00,VWS V14.01,2013-09-14 16:31:00,
2013-09-14 12:36:00,71.3,58.5,29.83,West,276,4.0,6.0,64,0.00,,,0.00,VWS V14.01,2013-09-14 16:36:00,
2013-09-14 12:41:00,70.6,58.3,29.83,NNW,327,1.0,6.0,65,0.00,,,0.00,VWS V14.01,2013-09-14 16:41:00,
2013-09-14 12:46:00,70.2,57.9,29.83,NW,321,0.0,6.0,65,0.00,,,0.00,VWS V14.01,2013-09-14 16:46:00,
2013-09-14 12:51:00,70.2,58.3,29.83,WNW,282,0.0,6.0,66,0.00,,,0.00,VWS V14.01,2013-09-14 16:51:00,
2013-09-14 12:56:00,70.3,58.4,29.83,NNW,328,0.0,6.0,66,0.00,,,0.00,VWS V14.01,2013-09-14 16:56:00,
2013-09-14 13:00:00,71.3,58.9,29.83,WNW,303,2.0,6.0,65,0.00,,,0.00,VWS V14.01,2013-09-14 17:00:00,
2013-09-14 13:01:00,71.2,58.4,29.83,WNW,303,1.0,6.0,64,0.00,,,0.00,VWS V14.01,2013-09-14 17:01:00,
2013-09-14 13:06:00,71.3,58.9,29.83,NNW,339,0.0,4.0,65,0.00,,,0.00,VWS V14.01,2013-09-14 17:06:00,
2013-09-14 13:11:00,71.3,58.5,29.83,WNW,285,2.0,4.0,64,0.00,,,0.00,VWS V14.01,2013-09-14 17:11:00,
2013-09-14 13:16:00,71.4,58.6,29.83,WNW,298,5.0,5.0,64,0.00,,,0.00,VWS V14.01,2013-09-14 17:16:00,
2013-09-14 13:21:00,71.0,57.8,29.83,NNE,23,4.0,5.0,63,0.00,,,0.00,VWS V14.01,2013-09-14 17:21:00,
2013-09-14 13:26:00,71.2,59.3,29.83,NW,317,1.0,6.0,66,0.00,,,0.00,VWS V14.01,2013-09-14 17:26:00,
2013-09-14 13:30:00,71.5,57.8,29.83,NNW,329,0.0,6.0,62,0.00,,,0.00,VWS V14.01,2013-09-14 17:30:00,
2013-09-14 13:31:00,71.5,57.4,29.83,WNW,296,0.0,6.0,61,0.00,,,0.00,VWS V14.01,2013-09-14 17:31:00,
2013-09-14 13:36:00,71.3,58.1,29.83,NNW,328,0.0,3.0,63,0.00,,,0.00,VWS V14.01,2013-09-14 17:36:00,
2013-09-14 13:41:00,70.9,58.1,29.83,NW,313,0.0,4.0,64,0.00,,,0.00,VWS V14.01,2013-09-14 17:41:00,
2013-09-14 13:46:00,71.0,57.8,29.83,WNW,288,0.0,4.0,63,0.00,,,0.00,VWS V14.01,2013-09-14 17:46:00,
2013-09-14 13:51:00,71.4,57.7,29.83,NW,318,2.0,4.0,62,0.00,,,0.00,VWS V14.01,2013-09-14 17:51:00,
2013-09-14 13:56:00,71.8,58.1,29.83,NNW,330,1.0,4.0,62,0.00,,,0.00,VWS V14.01,2013-09-14 17:56:00,
2013-09-14 14:00:00,71.1,57.4,29.83,NNW,340,2.0,5.0,62,0.00,,,0.00,VWS V14.01,2013-09-14 18:00:00,
2013-09-14 14:01:00,71.3,57.6,29.83,NNW,341,1.0,5.0,62,0.00,,,0.00,VWS V14.01,2013-09-14 18:01:00,
2013-09-14 14:06:00,70.8,58.0,29.83,NW,309,0.0,5.0,64,0.00,,,0.00,VWS V14.01,2013-09-14 18:06:00,
2013-09-14 14:11:00,70.7,58.8,29.83,NW,323,1.0,5.0,66,0.00,,,0.00,VWS V14.01,2013-09-14 18:11:00,
2013-09-14 14:16:00,70.6,57.4,29.83,NNW,340,3.0,5.0,63,0.00,,,0.00,VWS V14.01,2013-09-14 18:16:00,
2013-09-14 14:21:00,70.3,58.0,29.83,West,273,0.0,5.0,65,0.00,,,0.00,VWS V14.01,2013-09-14 18:21:00,
2013-09-14 14:26:00,70.6,57.8,29.83,NW,321,1.0,5.0,64,0.00,,,0.00,VWS V14.01,2013-09-14 18:26:00,
2013-09-14 14:30:00,71.0,58.7,29.83,WNW,284,1.0,5.0,65,0.00,,,0.00,VWS V14.01,2013-09-14 18:30:00,
2013-09-14 14:31:00,70.9,57.7,29.83,WNW,284,1.0,5.0,63,0.00,,,0.00,VWS V14.01,2013-09-14 18:31:00,
2013-09-14 14:36:00,71.5,57.8,29.83,WNW,297,3.0,5.0,62,0.00,,,0.00,VWS V14.01,2013-09-14 18:36:00,
2013-09-14 14:41:00,72.0,58.3,29.83,NW,307,1.0,5.0,62,0.00,,,0.00,VWS V14.01,2013-09-14 18:41:00,
2013-09-14 14:46:00,72.7,58.0,29.83,NNW,338,2.0,5.0,60,0.00,,,0.00,VWS V14.01,2013-09-14 18:46:00,
2013-09-14 14:51:00,73.6,58.4,29.83,NW,313,2.0,5.0,59,0.00,,,0.00,VWS V14.01,2013-09-14 18:51:00,
2013-09-14 14:56:00,73.5,58.3,29.83,WNW,299,4.0,7.0,59,0.00,,,0.00,VWS V14.01,2013-09-14 18:56:00,
2013-09-14 15:00:00,73.6,59.3,29.83,NW,319,1.0,7.0,61,0.00,,,0.00,VWS V14.01,2013-09-14 19:00:00,
2013-09-14 15:01:00,73.4,59.6,29.83,North,11,0.0,7.0,62,0.00,,,0.00,VWS V14.01,2013-09-14 19:01:00,
2013-09-14 15:06:00,73.8,59.1,29.83,NNE,26,0.0,5.0,60,0.00,,,0.00,VWS V14.01,2013-09-14 19:06:00,
2013-09-14 15:11:00,74.2,59.0,29.83,NNW,333,6.0,9.0,59,0.00,,,0.00,VWS V14.01,2013-09-14 19:11:00,
2013-09-14 15:16:00,73.4,58.2,29.84,NNW,336,6.0,9.0,59,0.00,,,0.00,VWS V14.01,2013-09-14 19:16:00,
2013-09-14 15:21:00,73.0,57.8,29.84,NW,307,2.0,9.0,59,0.00,,,0.00,VWS V14.01,2013-09-14 19:21:00,
2013-09-14 15:26:00,72.3,57.2,29.84,NNW,334,1.0,9.0,59,0.00,,,0.00,VWS V14.01,2013-09-14 19:26:00,
2013-09-14 15:30:00,71.5,57.8,29.84,NNW,330,0.0,9.0,62,0.00,,,0.00,VWS V14.01,2013-09-14 19:30:00,
2013-09-14 15:31:00,71.7,58.0,29.84,North,360,2.0,9.0,62,0.00,,,0.00,VWS V14.01,2013-09-14 19:31:00,
2013-09-14 15:35:00,71.1,57.4,29.84,WNW,300,5.0,5.0,62,0.00,,,0.00,VWS V14.01,2013-09-14 19:35:00,
2013-09-14 15:40:00,70.4,57.2,29.84,North,5,0.0,5.0,63,0.00,,,0.00,VWS V14.01,2013-09-14 19:40:00,
2013-09-14 15:45:00,70.1,56.9,29.84,NW,323,0.0,5.0,63,0.00,,,0.00,VWS V14.01,2013-09-14 19:45:00,
2013-09-14 15:50:00,70.7,57.1,29.84,NNE,23,0.0,5.0,62,0.00,,,0.00,VWS V14.01,2013-09-14 19:50:00,
2013-09-14 15:55:00,71.0,56.9,29.84,NNW,331,3.0,5.0,61,0.00,,,0.00,VWS V14.01,2013-09-14 19:55:00,
2013-09-14 16:00:00,71.2,57.5,29.84,North,360,1.0,5.0,62,0.00,,,0.00,VWS V14.01,2013-09-14 20:00:00,
2013-09-14 16:05:00,71.5,57.4,29.84,NW,313,3.0,5.0,61,0.00,,,0.00,VWS V14.01,2013-09-14 20:05:00,
2013-09-14 16:10:00,71.6,57.9,29.84,NNW,329,1.0,6.0,62,0.00,,,0.00,VWS V14.01,2013-09-14 20:10:00,
2013-09-14 16:15:00,71.4,57.7,29.84,NNW,345,1.0,6.0,62,0.00,,,0.00,VWS V14.01,2013-09-14 20:15:00,
2013-09-14 16:20:00,71.3,57.6,29.85,NNW,345,1.0,6.0,62,0.00,,,0.00,VWS V14.01,2013-09-14 20:20:00,
2013-09-14 16:25:00,70.9,57.2,29.85,North,355,2.0,6.0,62,0.00,,,0.00,VWS V14.01,2013-09-14 20:25:00,
2013-09-14 16:30:00,70.4,57.2,29.85,NW,325,5.0,6.0,63,0.00,,,0.00,VWS V14.01,2013-09-14 20:30:00,
2013-09-14 16:35:00,70.0,57.7,29.85,North,350,1.0,4.0,65,0.00,,,0.00,VWS V14.01,2013-09-14 20:35:00,
2013-09-14 16:40:00,69.9,57.6,29.85,NW,313,2.0,6.0,65,0.00,,,0.00,VWS V14.01,2013-09-14 20:40:00,
2013-09-14 16:45:00,69.5,57.2,29.85,NNW,327,5.0,6.0,65,0.00,,,0.00,VWS V14.01,2013-09-14 20:45:00,
2013-09-14 16:50:00,69.5,56.8,29.86,NW,315,3.0,6.0,64,0.00,,,0.00,VWS V14.01,2013-09-14 20:50:00,
2013-09-14 16:55:00,69.5,57.2,29.86,NW,321,2.0,6.0,65,0.00,,,0.00,VWS V14.01,2013-09-14 20:55:00,
2013-09-14 17:00:00,69.3,56.6,29.86,NW,306,0.0,6.0,64,0.00,,,0.00,VWS V14.01,2013-09-14 21:00:00,
2013-09-14 17:05:00,68.9,56.7,29.86,NW,325,0.0,6.0,65,0.00,,,0.00,VWS V14.01,2013-09-14 21:05:00,
2013-09-14 17:10:00,68.8,56.6,29.86,West,270,1.0,6.0,65,0.00,,,0.00,VWS V14.01,2013-09-14 21:10:00,
2013-09-14 17:15:00,68.9,56.7,29.87,NW,316,2.0,6.0,65,0.00,,,0.00,VWS V14.01,2013-09-14 21:15:00,
2013-09-14 17:20:00,69.0,56.8,29.87,NW,315,1.0,6.0,65,0.00,,,0.00,VWS V14.01,2013-09-14 21:20:00,
2013-09-14 17:25:00,68.9,56.7,29.87,NNW,337,2.0,6.0,65,0.00,,,0.00,VWS V14.01,2013-09-14 21:25:00,
2013-09-14 17:30:00,68.6,56.0,29.88,NNW,339,1.0,6.0,64,0.00,,,0.00,VWS V14.01,2013-09-14 21:30:00,
2013-09-14 17:35:00,68.3,55.7,29.88,NW,319,2.0,5.0,64,0.00,,,0.00,VWS V14.01,2013-09-14 21:35:00,
2013-09-14 17:40:00,68.0,55.8,29.88,WNW,289,3.0,6.0,65,0.00,,,0.00,VWS V14.01,2013-09-14 21:40:00,
2013-09-14 17:45:00,67.9,55.3,29.88,WNW,298,3.0,6.0,64,0.00,,,0.00,VWS V14.01,2013-09-14 21:45:00,
2013-09-14 17:50:00,67.6,55.0,29.88,NW,315,2.0,6.0,64,0.00,,,0.00,VWS V14.01,2013-09-14 21:50:00,
2013-09-14 17:55:00,67.4,54.8,29.89,NW,323,6.0,7.0,64,0.00,,,0.00,VWS V14.01,2013-09-14 21:55:00,
2013-09-14 18:00:00,67.1,55.4,29.89,NW,320,1.0,7.0,66,0.00,,,0.00,VWS V14.01,2013-09-14 22:00:00,
2013-09-14 18:05:00,67.1,55.8,29.89,NW,320,0.0,1.0,67,0.00,,,0.00,VWS V14.01,2013-09-14 22:05:00,
2013-09-14 18:10:00,67.0,55.7,29.89,NW,320,1.0,2.0,67,0.00,,,0.00,VWS V14.01,2013-09-14 22:10:00,
2013-09-14 18:15:00,66.8,55.5,29.89,NW,320,1.0,2.0,67,0.00,,,0.00,VWS V14.01,2013-09-14 22:15:00,
2013-09-14 18:20:00,66.7,55.8,29.89,NW,320,0.0,2.0,68,0.00,,,0.00,VWS V14.01,2013-09-14 22:20:00,
2013-09-14 18:25:00,66.4,56.3,29.89,NW,320,0.0,2.0,70,0.00,,,0.00,VWS V14.01,2013-09-14 22:25:00,
2013-09-14 18:30:00,66.0,56.3,29.90,NW,320,0.0,2.0,71,0.00,,,0.00,VWS V14.01,2013-09-14 22:30:00,
2013-09-14 18:35:00,65.4,56.2,29.90,NNW,334,0.0,2.0,72,0.00,,,0.00,VWS V14.01,2013-09-14 22:35:00,
2013-09-14 18:40:00,65.0,56.5,29.90,NNW,334,0.0,2.0,74,0.00,,,0.00,VWS V14.01,2013-09-14 22:40:00,
2013-09-14 18:45:00,64.6,56.1,29.90,NNW,334,0.0,2.0,74,0.00,,,0.00,VWS V14.01,2013-09-14 22:45:00,
2013-09-14 18:49:00,64.3,56.2,29.90,NNW,334,0.0,2.0,75,0.00,,,0.00,VWS V14.01,2013-09-14 22:49:00,
2013-09-14 18:54:00,63.9,56.2,29.90,NNW,334,0.0,2.0,76,0.00,,,0.00,VWS V14.01,2013-09-14 22:54:00,
2013-09-14 18:59:00,63.5,55.8,29.91,NNW,334,0.0,2.0,76,0.00,,,0.00,VWS V14.01,2013-09-14 22:59:00,
2013-09-14 19:00:00,63.3,56.0,29.91,NNW,334,0.0,2.0,77,0.00,,,0.00,VWS V14.01,2013-09-14 23:00:00,
2013-09-14 19:04:00,63.2,55.9,29.91,NNW,334,0.0,0.0,77,0.00,,,0.00,VWS V14.01,2013-09-14 23:04:00,
2013-09-14 19:09:00,63.0,56.0,29.91,NNW,334,0.0,0.0,78,0.00,,,0.00,VWS V14.01,2013-09-14 23:09:00,
2013-09-14 19:14:00,63.0,56.0,29.91,NNW,334,0.0,0.0,78,0.00,,,0.00,VWS V14.01,2013-09-14 23:14:00,
2013-09-14 19:19:00,63.0,56.0,29.91,NNW,334,0.0,0.0,78,0.00,,,0.00,VWS V14.01,2013-09-14 23:19:00,
2013-09-14 19:24:00,63.0,56.4,29.92,NNW,334,0.0,0.0,79,0.00,,,0.00,VWS V14.01,2013-09-14 23:24:00,
2013-09-14 19:29:00,63.0,56.4,29.92,NNW,334,0.0,0.0,79,0.00,,,0.00,VWS V14.01,2013-09-14 23:29:00,
2013-09-14 19:30:00,63.0,56.4,29.92,NNW,334,0.0,0.0,79,0.00,,,0.00,VWS V14.01,2013-09-14 23:30:00,
2013-09-14 19:34:00,63.0,56.4,29.92,NNW,334,0.0,0.0,79,0.00,,,0.00,VWS V14.01,2013-09-14 23:34:00,
2013-09-14 19:39:00,63.0,56.4,29.93,NNW,334,0.0,0.0,79,0.00,,,0.00,VWS V14.01,2013-09-14 23:39:00,
2013-09-14 19:44:00,63.0,56.4,29.93,NNW,334,0.0,0.0,79,0.00,,,0.00,VWS V14.01,2013-09-14 23:44:00,
2013-09-14 19:49:00,63.0,56.7,29.93,NNW,334,0.0,0.0,80,0.00,,,0.00,VWS V14.01,2013-09-14 23:49:00,
2013-09-14 19:54:00,63.1,56.8,29.93,NNW,334,0.0,0.0,80,0.00,,,0.00,VWS V14.01,2013-09-14 23:54:00,
2013-09-14 19:59:00,63.1,56.8,29.93,NNW,334,0.0,0.0,80,0.00,,,0.00,VWS V14.01,2013-09-14 23:59:00,
2013-09-14 20:00:00,63.1,56.8,29.94,NNW,334,0.0,0.0,80,0.00,,,0.00,VWS V14.01,2013-09-15 00:00:00,
2013-09-14 20:04:00,63.2,56.9,29.94,NNW,334,0.0,0.0,80,0.00,,,0.00,VWS V14.01,2013-09-15 00:04:00,
2013-09-14 20:09:00,63.1,57.2,29.94,NNW,334,0.0,0.0,81,0.00,,,0.00,VWS V14.01,2013-09-15 00:09:00,
2013-09-14 20:14:00,63.0,57.4,29.94,NNW,334,0.0,0.0,82,0.00,,,0.00,VWS V14.01,2013-09-15 00:14:00,
2013-09-14 20:19:00,63.0,57.4,29.95,NNW,334,0.0,1.0,82,0.00,,,0.00,VWS V14.01,2013-09-15 00:19:00,
2013-09-14 20:24:00,62.8,56.9,29.95,NNW,334,1.0,2.0,81,0.00,,,0.00,VWS V14.01,2013-09-15 00:24:00,
2013-09-14 20:29:00,62.9,56.6,29.95,NNW,333,0.0,2.0,80,0.00,,,0.00,VWS V14.01,2013-09-15 00:29:00,
2013-09-14 20:30:00,62.9,56.6,29.95,NNW,333,0.0,2.0,80,0.00,,,0.00,VWS V14.01,2013-09-15 00:30:00,
2013-09-14 20:34:00,62.9,56.6,29.95,NNW,333,1.0,1.0,80,0.00,,,0.00,VWS V14.01,2013-09-15 00:34:00,
2013-09-14 20:39:00,62.9,56.3,29.95,NNW,333,0.0,1.0,79,0.00,,,0.00,VWS V14.01,2013-09-15 00:39:00,
2013-09-14 20:44:00,62.9,56.3,29.96,NNW,333,0.0,2.0,79,0.00,,,0.00,VWS V14.01,2013-09-15 00:44:00,
2013-09-14 20:48:00,62.7,56.1,29.96,NNW,333,0.0,2.0,79,0.00,,,0.00,VWS V14.01,2013-09-15 00:48:00,
2013-09-14 20:53:00,62.6,56.0,29.96,NNW,333,0.0,2.0,79,0.00,,,0.00,VWS V14.01,2013-09-15 00:53:00,
2013-09-14 20:58:00,62.4,56.2,29.96,NNW,333,0.0,2.0,80,0.00,,,0.00,VWS V14.01,2013-09-15 00:58:00,
2013-09-14 21:00:00,62.2,56.0,29.96,NNW,333,0.0,2.0,80,0.00,,,0.00,VWS V14.01,2013-09-15 01:00:00,
2013-09-14 21:03:00,62.2,56.0,29.96,NNW,333,0.0,0.0,80,0.00,,,0.00,VWS V14.01,2013-09-15 01:03:00,
2013-09-14 21:08:00,61.9,56.0,29.96,NNW,333,0.0,2.0,81,0.00,,,0.00,VWS V14.01,2013-09-15 01:08:00,
2013-09-14 21:13:00,61.7,56.2,29.96,NNW,333,0.0,2.0,82,0.00,,,0.00,VWS V14.01,2013-09-15 01:13:00,
2013-09-14 21:18:00,61.4,55.9,29.96,NNW,333,0.0,2.0,82,0.00,,,0.00,VWS V14.01,2013-09-15 01:18:00,
2013-09-14 21:23:00,61.1,55.6,29.97,NNW,333,1.0,2.0,82,0.00,,,0.00,VWS V14.01,2013-09-15 01:23:00,
2013-09-14 21:28:00,60.9,55.4,29.97,NNW,333,1.0,2.0,82,0.00,,,0.00,VWS V14.01,2013-09-15 01:28:00,
2013-09-14 21:30:00,60.7,55.2,29.97,NNW,333,0.0,3.0,82,0.00,,,0.00,VWS V14.01,2013-09-15 01:30:00,
2013-09-14 21:33:00,60.6,55.1,29.97,NNW,333,0.0,2.0,82,0.00,,,0.00,VWS V14.01,2013-09-15 01:33:00,
2013-09-14 21:38:00,60.4,55.2,29.97,NNW,333,0.0,2.0,83,0.00,,,0.00,VWS V14.01,2013-09-15 01:38:00,
2013-09-14 21:43:00,60.3,55.1,29.97,NNW,333,0.0,2.0,83,0.00,,,0.00,VWS V14.01,2013-09-15 01:43:00,
2013-09-14 21:48:00,60.1,54.9,29.97,NNW,333,1.0,2.0,83,0.00,,,0.00,VWS V14.01,2013-09-15 01:48:00,
2013-09-14 21:53:00,60.0,55.2,29.97,NNW,333,0.0,2.0,84,0.00,,,0.00,VWS V14.01,2013-09-15 01:53:00,
2013-09-14 21:58:00,59.9,55.1,29.97,NNW,333,0.0,2.0,84,0.00,,,0.00,VWS V14.01,2013-09-15 01:58:00,
2013-09-14 22:00:00,59.9,55.1,29.97,NNW,333,0.0,2.0,84,0.00,,,0.00,VWS V14.01,2013-09-15 02:00:00,
2013-09-14 22:03:00,59.9,55.1,29.97,NNW,333,0.0,1.0,84,0.00,,,0.00,VWS V14.01,2013-09-15 02:03:00,
2013-09-14 22:08:00,59.8,55.0,29.97,NNW,333,1.0,2.0,84,0.00,,,0.00,VWS V14.01,2013-09-15 02:08:00,
2013-09-14 22:13:00,59.7,54.9,29.97,NNW,333,0.0,2.0,84,0.00,,,0.00,VWS V14.01,2013-09-15 02:13:00,
2013-09-14 22:18:00,59.5,55.0,29.97,NNW,333,0.0,2.0,85,0.00,,,0.00,VWS V14.01,2013-09-15 02:18:00,
2013-09-14 22:23:00,59.3,54.8,29.97,NNW,333,0.0,2.0,85,0.00,,,0.00,VWS V14.01,2013-09-15 02:23:00,
2013-09-14 22:28:00,59.1,54.6,29.97,NNW,333,0.0,2.0,85,0.00,,,0.00,VWS V14.01,2013-09-15 02:28:00,
2013-09-14 22:30:00,58.9,54.4,29.97,NNW,333,0.0,2.0,85,0.00,,,0.00,VWS V14.01,2013-09-15 02:30:00,
2013-09-14 22:33:00,58.9,54.4,29.97,NNW,333,0.0,0.0,85,0.00,,,0.00,VWS V14.01,2013-09-15 02:33:00,
2013-09-14 22:38:00,58.6,54.4,29.97,NNW,333,0.0,0.0,86,0.00,,,0.00,VWS V14.01,2013-09-15 02:38:00,
2013-09-14 22:43:00,58.3,54.1,29.97,NNW,333,0.0,0.0,86,0.00,,,0.00,VWS V14.01,2013-09-15 02:43:00,
2013-09-14 22:48:00,58.0,53.8,29.98,NNW,333,0.0,0.0,86,0.00,,,0.00,VWS V14.01,2013-09-15 02:48:00,
2013-09-14 22:53:00,57.7,53.9,29.98,NNW,333,0.0,0.0,87,0.00,,,0.00,VWS V14.01,2013-09-15 02:53:00,
2013-09-14 22:58:00,57.4,53.6,29.98,NNW,333,0.0,2.0,87,0.00,,,0.00,VWS V14.01,2013-09-15 02:58:00,
2013-09-14 23:00:00,57.3,53.8,29.98,NNW,333,0.0,2.0,88,0.00,,,0.00,VWS V14.01,2013-09-15 03:00:00,
2013-09-14 23:03:00,57.2,53.7,29.98,NNW,333,0.0,0.0,88,0.00,,,0.00,VWS V14.01,2013-09-15 03:03:00,
2013-09-14 23:08:00,56.9,53.4,29.98,NNW,333,0.0,0.0,88,0.00,,,0.00,VWS V14.01,2013-09-15 03:08:00,
2013-09-14 23:13:00,56.7,53.2,29.98,NNW,333,0.0,0.0,88,0.00,,,0.00,VWS V14.01,2013-09-15 03:13:00,
2013-09-14 23:18:00,56.5,53.3,29.98,NNW,333,0.0,0.0,89,0.00,,,0.00,VWS V14.01,2013-09-15 03:18:00,
2013-09-14 23:23:00,56.4,53.2,29.98,NNW,333,0.0,0.0,89,0.00,,,0.00,VWS V14.01,2013-09-15 03:23:00,
2013-09-14 23:28:00,56.2,53.0,29.98,NNW,333,0.0,0.0,89,0.00,,,0.00,VWS V14.01,2013-09-15 03:28:00,
2013-09-14 23:30:00,56.2,53.0,29.98,NNW,333,0.0,0.0,89,0.00,,,0.00,VWS V14.01,2013-09-15 03:30:00,
2013-09-14 23:33:00,56.1,52.9,29.99,NNW,333,0.0,0.0,89,0.00,,,0.00,VWS V14.01,2013-09-15 03:33:00,
2013-09-14 23:38:00,56.0,52.8,29.99,NNW,333,0.0,0.0,89,0.00,,,0.00,VWS V14.01,2013-09-15 03:38:00,
2013-09-14 23:43:00,55.9,53.0,29.98,NNW,333,0.0,0.0,90,0.00,,,0.00,VWS V14.01,2013-09-15 03:43:00,
2013-09-14 23:48:00,55.8,52.9,29.98,NNW,333,0.0,0.0,90,0.00,,,0.00,VWS V14.01,2013-09-15 03:48:00,
2013-09-14 23:53:00,55.6,52.7,29.99,NNW,333,0.0,0.0,90,0.00,,,0.00,VWS V14.01,2013-09-15 03:53:00,
2013-09-14 23:58:00,55.5,52.6,29.99,NNW,333,0.0,0.0,90,0.00,,,0.00,VWS V14.01,2013-09-15 03:58:00,